Location: Molveno
(46.1500°N, 10.9667°E)
Time: 01:45:14
(UTC+00:00)

Resurs 1-4 Rocket - Pass Details

Date: 05 July 2020
Orbit: 800 x 814 km, 98.6° (Epoch: 11 August)

Event Time Altitude Azimuth Distance (km) Brightness Sun altitude
Rises 23:39:32 0° 28° (NNE) 3,349 6.5 -21.1°
Reaches altitude 10° 23:42:37 10° 46° (NE) 2,411 5.2 -21.0°
Maximum altitude 23:46:17 19° 90° (E) 1,869 4.0 -20.9°
Enters shadow 23:48:44 14° 123° (ESE) 2,121 4.0 -20.9°
